Perkinsville, VT

7:54 PM EST on December 04, 2016 (GMT -0500)
Hartness State

Weather History for KVSF - August, 2013

Change the Weather History Date:

Saturday, August 3, 2013

  Actual Average Record
Temperature  
Mean Temperature 67 °F 68 °F  
Max Temperature 79 °F 81 °F 93 °F (2015)
Min Temperature 54 °F 56 °F 48 °F (1999)
Degree Days  
Heating Degree Days 0 1  
Month to date heating degree days 3  
Since 1 June heating degree days 116  
Since 1 July heating degree days 20  
Cooling Degree Days 2 4  
Month to date cooling degree days 8 12  
Year to date cooling degree days 374 227  
Since 1 June cooling degree days 350 215  
Growing Degree Days 16 (Base 50)    
Moisture  
Dew Point 55 °F    
Average Humidity 70    
Maximum Humidity 100    
Minimum Humidity 39    
Precipitation  
Precipitation 0.02 in 0.14 in 0.28 in (2008)
Month to date precipitation 0.34 0.43  
Year to date precipitation 23.55 25.02  
Sea Level Pressure  
Sea Level Pressure 29.84 in    
Wind  
Wind Speed 4 mph (West)    
Max Wind Speed 20 mph    
Max Gust Speed 28 mph    
Visibility 9 miles    
Events Rain    
T = Trace of Precipitation, MM = Missing Value Source: NWS Daily Summary

Daily Weather History Graph

Daily Weather History Graph

Search for Another Location

Airport or City:

Trip Planner

Search our weather history database for the weather conditions in past years. The results will help you decide how hot, cold, wet, or windy it might be!

Date:

Astronomy

Aug. 03, 2013 Rise Set
Actual Time 5:42 AM EDT 8:09 PM EDT
Civil Twilight 5:10 AM EDT 8:41 PM EDT
Nautical Twilight 4:30 AM EDT 9:21 PM EDT
Astronomical Twilight 3:44 AM EDT 10:06 PM EDT
Moon 2:48 AM EDT (8/3) 5:50 PM EDT (8/3)
Length of Visible Light 15h 31m
Length of Day
14h 27m
Waning Crescent, 9% of the Moon is Illuminated
Aug 3
Waning Crescent
Aug 6
New
Aug 14
First Quarter
Aug 20
Full
Aug 28
Last Quarter

Hourly Weather History & Observations

Time (EDT) Temp. Dew Point Humidity Pressure Visibility Wind Dir Wind Speed Gust Speed Precip Events Conditions
12:54 AM 57.9 °F 55.9 °F 93% 29.87 in 10.0 mi Calm Calm - N/A   Clear
1:54 AM 55.9 °F 55.0 °F 97% 29.86 in 10.0 mi Calm Calm - N/A   Clear
2:35 AM 55.4 °F 55.4 °F 100% 29.86 in 10.0 mi Calm Calm - N/A   Scattered Clouds
2:54 AM 55.9 °F 55.0 °F 97% 29.85 in 10.0 mi Calm Calm - N/A   Partly Cloudy
3:54 AM 55.0 °F 54.0 °F 96% 29.82 in 10.0 mi Calm Calm - N/A   Clear
4:54 AM 55.9 °F 55.0 °F 97% 29.82 in 10.0 mi Calm Calm - N/A   Overcast
5:54 AM 57.0 °F 55.9 °F 96% 29.83 in 10.0 mi Calm Calm - 0.00 in Rain Light Rain
6:54 AM 59.0 °F 57.0 °F 93% 29.84 in 4.0 mi Calm Calm - 0.01 in Rain Light Rain
7:04 AM 57.2 °F 57.2 °F 100% 29.84 in 2.5 mi ENE 3.5 mph - 0.01 in Rain Light Rain
7:11 AM 57.2 °F 57.2 °F 100% 29.85 in 6.0 mi Calm Calm - 0.01 in Rain Light Rain
7:54 AM 59.0 °F 57.9 °F 96% 29.86 in 10.0 mi Calm Calm - 0.01 in   Overcast
8:54 AM 62.1 °F 59.0 °F 90% 29.85 in 10.0 mi Calm Calm - N/A   Clear
9:54 AM 66.0 °F 57.9 °F 75% 29.84 in 10.0 mi Variable 3.5 mph - N/A   Scattered Clouds
10:54 AM 68.0 °F 57.9 °F 70% 29.84 in 10.0 mi NNE 3.5 mph - N/A   Overcast
11:54 AM 70.0 °F 57.9 °F 65% 29.83 in 10.0 mi NNW 3.5 mph - N/A   Mostly Cloudy
12:54 PM 75.9 °F 53.1 °F 45% 29.81 in 10.0 mi West 9.2 mph - N/A   Mostly Cloudy
1:54 PM 75.0 °F 52.0 °F 44% 29.81 in 10.0 mi West 10.4 mph - N/A   Mostly Cloudy
2:54 PM 78.1 °F 51.1 °F 39% 29.79 in 10.0 mi West 15.0 mph - N/A   Partly Cloudy
3:54 PM 73.9 °F 51.1 °F 45% 29.81 in 10.0 mi West 11.5 mph 20.7 mph N/A   Mostly Cloudy
4:54 PM 75.0 °F 51.1 °F 43% 29.80 in 10.0 mi West 15.0 mph 23.0 mph N/A   Scattered Clouds
5:54 PM 75.9 °F 52.0 °F 43% 29.81 in 10.0 mi West 6.9 mph - N/A   Mostly Cloudy
6:54 PM 73.0 °F 52.0 °F 48% 29.81 in 10.0 mi WNW 4.6 mph - N/A   Clear
7:54 PM 69.1 °F 55.0 °F 61% 29.83 in 10.0 mi Calm Calm - N/A   Clear
8:54 PM 63.0 °F 55.9 °F 78% 29.85 in 10.0 mi Calm Calm - N/A   Clear
9:54 PM 61.0 °F 55.9 °F 83% 29.86 in 10.0 mi Calm Calm - N/A   Clear
10:54 PM 57.9 °F 55.0 °F 90% 29.86 in 10.0 mi SSW 4.6 mph - N/A   Clear
11:54 PM 55.9 °F 54.0 °F 93% 29.86 in 10.0 mi South 4.6 mph - N/A   Clear